[[{"header":{"parameterUnit":"m.s-1","parameterCategory":1,"la1":30.2991,"la2":30.254,"lo1":-89.0895,"lo2":-89.0444,"dy":0.0017,"dx":0.0017,"nx":28,"ny":28,"refTime":"2025-09-01T21:00:00:Z","depth":0,"parameterNumber":2,"parameterNumberName":"U-component_of_WINDS"},"data":[0,0,0,0,0,0,0,0,0,0,0,0,0,0,0,0,0,0,0,0,0,0,0,0,0,0,0,0,0,0,0,0,0,0,0,0,0,0,0,0,0,0,0,0,0,0,0,0,0,0,0,0,0,0,0,0,0,0,-1.9374,-1.9375,0,-1.9418,-1.9418,-1.9419,-1.9395,-1.9394,-1.9393,-1.9392,-1.9437,-1.9439,-1.9441,0,0,0,0,0,0,0,0,0,0,0,0,0,-1.9271,-1.9273,-1.9374,-1.9375,-1.9375,-1.9418,-1.9418,-1.9419,-1.9395,-1.9394,-1.9393,-1.9391,-1.9436,-1.9439,-1.9441,0,0,0,0,0,0,0,0,0,0,0,0,0,-1.9316,-1.9274,-1.9374,-1.9369,-1.9369,-1.9418,-1.9418,-1.9419,-1.9396,-1.9394,-1.9392,-1.9391,-1.9435,-1.9438,-1.9442,-1.9499,0,0,-1.9452,-1.9454,0,0,0,0,0,0,0,0,-1.9313,-1.9319,-1.9369,-1.9369,-1.9369,-1.9399,-1.9398,-1.9446,-1.9396,-1.9386,-1.9392,-1.939,-1.9426,-1.943,-1.9442,-1.9501,-1.9503,-1.9453,-1.9455,-1.9456,-1.9457,0,0,0,0,0,0,0,-1.931,-1.9317,-1.9391,-1.937,-1.937,-1.9364,-1.9369,-1.9407,-1.9415,-1.9386,-1.9385,-1.939,-1.9425,-1.9439,-1.9443,-1.9503,-1.9453,-1.9456,-1.9458,-1.9459,-1.9611,-1.9613,0,0,0,0,0,0,-1.9307,-1.9315,-1.939,-1.9393,-1.9336,-1.9368,-1.9372,-1.9391,-1.9415,-1.9416,-1.9392,-1.9389,-1.9434,-1.9439,-1.9444,-1.9512,-1.9456,-1.9459,-1.9461,-1.9609,-1.9612,-1.9614,0,0,0,0,0,0,-1.9305,-1.9314,-1.9388,-1.9353,-1.9362,-1.9371,-1.9393,-1.9393,-1.9406,-1.9419,-1.942,-1.9404,-1.9432,-1.9439,-1.9485,-1.9514,-1.9461,-1.9464,-1.9607,-1.961,-1.9613,-1.9649,0,0,0,0,0,0,-1.9302,-1.9314,-1.9335,-1.9354,-1.9364,-1.9429,-1.9395,-1.9395,-1.9412,-1.9409,-1.943,-1.9432,-1.9432,-1.948,-1.9489,-1.9517,-1.9467,-1.9604,-1.9608,-1.9612,-1.9645,-1.9653,-1.9659,0,0,0,0,0,-1.9299,-1.9344,-1.9336,-1.9345,-1.9392,-1.943,-1.9436,-1.9435,-1.9415,-1.9437,-1.9444,-1.9431,-1.9509,-1.9485,-1.9495,-1.9525,-1.9603,-1.9607,-1.9612,-1.9642,-1.9651,-1.9659,0,0,0,0,0,0,-1.9328,-1.9346,-1.9338,-1.9391,-1.9409,-1.9426,-1.9454,-1.9444,-1.9469,-1.9465,-1.9462,-1.9467,-1.9515,-1.9524,-1.9497,-1.9581,-1.9553,-1.9559,-1.9573,-1.9582,-1.9589,-1.9585,-1.947,0,0,0,0,0,-1.934,-1.937,-1.9384,-1.9429,-1.9439,-1.9445,-1.9462,-1.9459,-1.9478,-1.9486,-1.9497,-1.9516,-1.9545,-1.9564,-1.9591,-1.9647,-1.9651,-1.9672,-1.9679,-1.9685,-1.969,-1.9721,-1.973,-1.9628,-1.9628,-1.9628,0,0,-1.9367,-1.938,-1.9399,-1.9436,-1.945,-1.9481,-1.9452,-1.9486,-1.9509,-1.9491,-1.9535,-1.9544,-1.9565,-1.9616,-1.9639,-1.9626,-1.9719,-1.969,-1.9695,-1.9697,-1.9726,-1.9736,-1.9744,-1.9631,-1.9631,-1.963,0,0,-1.943,-1.9443,-1.9482,-1.9497,-1.9518,-1.9522,-1.9531,-1.955,-1.9555,-1.96,-1.9587,-1.9614,-1.9664,-1.968,-1.9694,-1.9764,-1.9753,-1.9773,-1.9809,-1.9839,-1.9847,-1.9854,-1.9879,-1.9888,-1.9778,-1.9779,-1.9779,0,-1.946,-1.9506,-1.9503,-1.9539,-1.9555,-1.954,-1.958,-1.9594,-1.9624,-1.9635,-1.962,-1.9682,-1.9695,-1.9749,-1.9767,-1.9779,-1.9789,-1.977,-1.9846,-1.9853,-1.9859,-1.9883,-1.9893,-1.9781,-1.9781,-1.978,-1.978,0,-1.9542,-1.9574,-1.9603,-1.9631,-1.9651,-1.9688,-1.9692,-1.9712,-1.9708,-1.9713,-1.9758,-1.9774,-1.9804,-1.9816,-1.9813,-1.9871,-1.9861,-1.9846,-1.9818,-1.9872,-1.9894,-1.9903,-1.9784,-1.9783,-1.9783,-1.9782,0,0,-1.9625,-1.9651,-1.9662,-1.9675,-1.9698,-1.9723,-1.9759,-1.9789,-1.9806,-1.9827,-1.9858,-1.99,-1.9886,-1.9902,-1.99,-1.9926,-1.9981,-1.9907,-1.9908,-1.992,-2.0046,-2.0057,-2.0068,-1.9973,-1.9975,-1.9977,-2.0044,0,-1.969,-1.9753,-1.9752,-1.9811,-1.9841,-1.9828,-1.986,-1.9877,-1.9883,-1.991,-1.9916,-1.9947,-1.9926,-1.9935,-1.996,-1.9969,-2.0006,-1.9964,-2.0002,-2.0003,-1.9997,-2.0079,-2.0092,-2.0154,-2.0052,-2.0054,-2.0055,0,-1.9774,-1.9797,-1.986,-1.9878,-1.9891,-1.9919,-1.9946,-1.9971,-1.9991,-1.9994,-2.0012,-2.0006,-2.0043,-2.0014,-2.0066,-2.0037,-2.0053,-2.0059,-2.0062,-2.0065,-2.0032,-2.0085,-2.0174,-2.0184,-2.0069,-2.0068,-2.0067,0,-1.9828,-1.9875,-1.9919,-1.993,-1.9953,-1.9973,-1.9984,-2.0002,-2.0019,-2.0043,-2.0055,-2.0082,-2.0097,-2.0119,-2.0121,-2.0099,-2.0173,-2.0144,-2.0176,-2.0176,-2.0192,-2.0191,-2.0285,-2.0202,-2.0202,-2.0202,-2.0202,0,-1.9901,-1.9939,-1.9943,-1.997,-2.0013,-2.0011,-2.0054,-2.0062,-2.0079,-2.0107,-2.0097,-2.0124,-2.0124,-2.0152,-2.0153,-2.0196,-2.0203,-2.0206,-2.0206,-2.0207,-2.0206,-2.0217,-2.0213,-2.0205,-2.0204,-2.0204,-2.0203,0,-1.9969,-1.9973,-2.0019,-2.0037,-2.0042,-2.0073,-2.0088,-2.0114,-2.0119,-2.0155,-2.0163,-2.0171,-2.0203,-2.0207,-2.0244,-2.0245,-2.0296,-2.0292,-2.029,-2.0289,-2.0321,-2.0318,-2.0425,-2.0439,-2.0347,-2.0348,-2.0349,0,-2.0015,-2.0044,-2.0065,-2.0083,-2.0094,-2.0124,-2.0142,-2.0141,-2.0161,-2.0185,-2.0208,-2.0239,-2.0263,-2.0315,-2.0324,-2.0353,-2.0349,-2.0384,-2.0353,-2.0353,-2.0349,-2.0348,-2.0351,-2.039,-2.0391,-2.0392,-2.0393,0,-2.0096,-2.0096,-2.0123,-2.015,-2.0172,-2.0193,-2.0213,-2.0229,-2.0231,-2.0253,-2.0285,-2.0305,-2.0342,-2.0373,-2.0401,-2.0412,-2.0403,-2.0403,-2.0412,-2.0413,-2.0411,-2.0412,-2.0306,-2.04,-2.04,-2.0399,-2.0399,-2.0398,-2.0154,-2.018,-2.0198,-2.0228,-2.0243,-2.0262,-2.0287,-2.0295,-2.0322,-2.0353,-2.0351,-2.0387,-2.0406,-2.0443,-2.0456,-2.0484,-2.0472,-2.0485,-2.0488,-2.0492,-2.0495,-2.0406,-2.0489,-2.0489,-2.0488,-2.0488,-2.0488,0,-2.0235,-2.0246,-2.0273,-2.0302,-2.0325,-2.0314,-2.0336,-2.0357,-2.0388,-2.0407,-2.0431,-2.0468,-2.0498,-2.051,-2.054,-2.056,-2.0556,-2.0567,-2.0566,-2.0569,-2.0504,-2.0493,-2.057,-2.057,-2.057,-2.057,-2.057,-2.057,-2.028,-2.0322,-2.0325,-2.0375,-2.0386,-2.0421,-2.0434,-2.0452,-2.0467,-2.0509,-2.0533,-2.0541,-2.0557,-2.0587,-2.0614,-2.0617,-2.0629,-2.0642,-2.0643,-2.0581,-2.0573,-2.0565,-2.0555,-2.0644,-2.0644,-2.0705,-2.0706,-2.0706]},{"header":{"parameterUnit":"m.s-1","parameterCategory":1,"la1":30.2991,"la2":30.254,"lo1":-89.0895,"lo2":-89.0444,"dy":0.0017,"dx":0.0017,"nx":28,"ny":28,"refTime":"2025-09-01T21:00:00:Z","depth":0,"parameterNumber":3,"parameterNumberName":"V-component_of_WINDS"},"data":[0,0,0,0,0,0,0,0,0,0,0,0,0,0,0,0,0,0,0,0,0,0,0,0,0,0,0,0,0,0,0,0,0,0,0,0,0,0,0,0,0,0,0,0,0,0,0,0,0,0,0,0,0,0,0,0,0,0,1.2094,1.2092,0,1.1929,1.1927,1.1925,1.1831,1.183,1.183,1.183,1.1654,1.1649,1.1645,0,0,0,0,0,0,0,0,0,0,0,0,0,1.2321,1.2317,1.2094,1.2092,1.209,1.1929,1.1927,1.1925,1.1831,1.183,1.183,1.1829,1.1655,1.165,1.1645,0,0,0,0,0,0,0,0,0,0,0,0,0,1.2196,1.2316,1.2094,1.2024,1.2016,1.193,1.1927,1.1924,1.1831,1.183,1.183,1.1829,1.1657,1.165,1.1644,1.1613,0,0,1.1624,1.1621,0,0,0,0,0,0,0,0,1.2203,1.2188,1.2036,1.2028,1.2019,1.19,1.1942,1.182,1.1831,1.1901,1.183,1.1829,1.1735,1.1722,1.1692,1.1605,1.1597,1.1623,1.1619,1.1616,1.1614,0,0,0,0,0,0,0,1.2212,1.2194,1.2028,1.2034,1.2024,1.1998,1.198,1.1919,1.1823,1.1895,1.1887,1.187,1.1731,1.1699,1.1687,1.1595,1.1623,1.1617,1.1613,1.1611,1.1474,1.1474,0,0,0,0,0,0,1.2233,1.2202,1.2034,1.2023,1.2112,1.1995,1.1974,1.1939,1.1823,1.1805,1.187,1.1866,1.171,1.1695,1.1681,1.1637,1.1616,1.161,1.1606,1.1473,1.1474,1.1474,0,0,0,0,0,0,1.2238,1.2219,1.204,1.2111,1.2086,1.1991,1.1952,1.1936,1.1904,1.1805,1.1786,1.1856,1.1709,1.169,1.1631,1.163,1.1607,1.1601,1.1473,1.1473,1.1474,1.155,0,0,0,0,0,0,1.2245,1.2221,1.221,1.2111,1.2083,1.1995,1.1952,1.1933,1.1894,1.1886,1.1786,1.1769,1.1707,1.1642,1.1625,1.162,1.1596,1.1473,1.1473,1.1474,1.1547,1.1553,1.1558,0,0,0,0,0,1.2253,1.2236,1.221,1.219,1.2067,1.1995,1.1979,1.191,1.1894,1.1881,1.1817,1.1772,1.1633,1.1636,1.1616,1.161,1.1472,1.1473,1.1474,1.1544,1.1552,1.1558,0,0,0,0,0,0,1.2334,1.2222,1.2191,1.2142,1.208,1.198,1.1961,1.192,1.1859,1.1854,1.177,1.1748,1.1697,1.1647,1.1653,1.1574,1.1548,1.1545,1.1608,1.1614,1.162,1.1632,1.1591,0,0,0,0,0,1.2347,1.23,1.2204,1.2169,1.214,1.2056,1.2022,1.1976,1.1906,1.1878,1.181,1.1743,1.1684,1.1646,1.1586,1.154,1.1516,1.1526,1.1531,1.1536,1.1534,1.1505,1.1508,1.1476,1.1476,1.1476,0,0,1.237,1.2304,1.2279,1.2184,1.213,1.2082,1.2034,1.1985,1.1948,1.187,1.1811,1.1759,1.1678,1.1625,1.1598,1.1582,1.1538,1.1537,1.1542,1.1536,1.1506,1.151,1.1512,1.1477,1.1477,1.1476,0,0,1.239,1.2336,1.2301,1.2249,1.2169,1.2114,1.2106,1.2012,1.1976,1.1916,1.1857,1.181,1.171,1.1655,1.1614,1.1616,1.1572,1.1598,1.1626,1.1599,1.1602,1.1604,1.1604,1.1605,1.1597,1.1597,1.1597,0,1.2429,1.2357,1.2288,1.2243,1.2202,1.2133,1.2097,1.2048,1.1952,1.1924,1.1909,1.1783,1.1723,1.1657,1.1658,1.1627,1.1614,1.1609,1.1608,1.1609,1.1609,1.1608,1.1608,1.1601,1.16,1.16,1.1599,0,1.2409,1.236,1.2341,1.2253,1.2211,1.217,1.2093,1.2058,1.2016,1.1962,1.1902,1.1828,1.1753,1.1734,1.169,1.1661,1.1654,1.1624,1.1595,1.1617,1.1615,1.1614,1.1606,1.1605,1.1604,1.1603,0,0,1.2472,1.2349,1.2343,1.2303,1.221,1.2169,1.2126,1.2054,1.2026,1.1962,1.1922,1.1841,1.1813,1.1767,1.1717,1.1694,1.1699,1.1666,1.1663,1.1674,1.1662,1.1684,1.1685,1.167,1.167,1.167,1.1669,0,1.2478,1.2398,1.2336,1.2279,1.2232,1.2166,1.2128,1.2066,1.2015,1.1966,1.1909,1.1853,1.1821,1.1792,1.1767,1.1704,1.1695,1.1703,1.163,1.1629,1.1652,1.1684,1.1707,1.1709,1.1667,1.1667,1.1667,0,1.2473,1.2415,1.2354,1.2268,1.2246,1.2213,1.2143,1.2098,1.2026,1.1991,1.1941,1.189,1.1839,1.1817,1.1745,1.1752,1.1719,1.1684,1.1682,1.1671,1.1648,1.1673,1.1708,1.1709,1.1665,1.1665,1.1665,0,1.2524,1.2431,1.2383,1.235,1.2248,1.2227,1.2183,1.2111,1.2073,1.2011,1.1985,1.1918,1.1881,1.1829,1.1761,1.1751,1.1696,1.1668,1.1663,1.1665,1.1653,1.1655,1.1683,1.1634,1.1634,1.1634,1.1634,0,1.2536,1.2501,1.2405,1.2375,1.2334,1.2262,1.2223,1.2173,1.211,1.2068,1.2007,1.1968,1.1881,1.1832,1.1778,1.1727,1.171,1.1679,1.1665,1.1684,1.1688,1.1659,1.1657,1.1634,1.1634,1.1634,1.1634,0,1.2586,1.252,1.2463,1.2373,1.2349,1.2323,1.2244,1.2212,1.2159,1.2107,1.209,1.2006,1.1945,1.1873,1.1787,1.1751,1.1704,1.1683,1.1729,1.172,1.172,1.1721,1.173,1.1727,1.1682,1.1683,1.1683,0,1.2597,1.257,1.2477,1.2447,1.2405,1.2356,1.2317,1.2246,1.2208,1.2125,1.2103,1.2038,1.1982,1.1887,1.1817,1.1751,1.1728,1.1736,1.1717,1.1738,1.1727,1.1729,1.1726,1.174,1.1741,1.1742,1.1742,0,1.2624,1.2594,1.2542,1.2479,1.2436,1.2382,1.2326,1.2303,1.222,1.218,1.2118,1.2075,1.199,1.1925,1.1852,1.1804,1.1759,1.1749,1.1744,1.1763,1.179,1.1775,1.1741,1.1749,1.1748,1.1747,1.1747,1.1747,1.2654,1.2627,1.2558,1.2503,1.2454,1.2403,1.2369,1.2313,1.2261,1.2188,1.2148,1.2087,1.2016,1.1913,1.1867,1.1818,1.1802,1.1795,1.1793,1.1792,1.1798,1.18,1.1804,1.1803,1.1803,1.1803,1.1803,0,1.2677,1.2631,1.2581,1.2505,1.2462,1.2427,1.2363,1.2328,1.2276,1.2215,1.2163,1.2092,1.203,1.1956,1.1889,1.1863,1.1841,1.1848,1.1848,1.1838,1.1816,1.1827,1.1867,1.1867,1.1867,1.1867,1.1867,1.1867,1.2684,1.2636,1.2598,1.2525,1.2477,1.242,1.2386,1.2339,1.229,1.2215,1.2164,1.2118,1.2051,1.1979,1.192,1.19,1.1877,1.1891,1.1864,1.1845,1.1839,1.1834,1.1843,1.1887,1.1887,1.189,1.189,1.189]}]]